| time (UTC) | temp F | wind direction | speed MPH | gust MPH | rain 1hr in | rain 24hr in | rain mn in | humidity % | barometer mb |
| 20260502181033 | 54 | 336 | 5.0 | 13.0 | 0.00 | 0.01 | 0.00 | 48 | 1017.2 |
| 20260502180533 | 54 | 309 | 3.0 | 13.0 | 0.00 | 0.01 | 0.00 | 55 | 1017.2 |
| 20260502164034 | 52 | 318 | 4.0 | 12.0 | 0.00 | 0.01 | 0.00 | 56 | 1018.1 |
| 20260502163535 | 52 | 336 | 6.0 | 12.0 | 0.00 | 0.01 | 0.00 | 57 | 1018.1 |
| 20260502163043 | 51 | 343 | 3.0 | 8.0 | 0.00 | 0.01 | 0.00 | 56 | 1018.2 |
| 20260502162533 | 51 | 69 | 3.0 | 10.0 | 0.00 | 0.01 | 0.00 | 57 | 1018.1 |
| 20260502162037 | 50 | 317 | 2.0 | 10.0 | 0.00 | 0.01 | 0.00 | 54 | 1018.2 |
| 20260502161541 | 50 | 263 | 4.0 | 12.0 | 0.00 | 0.01 | 0.00 | 57 | 1018.4 |
| 20260502161035 | 50 | 263 | 2.0 | 12.0 | 0.00 | 0.01 | 0.00 | 57 | 1018.4 |
| 20260502160539 | 50 | 15 | 6.0 | 12.0 | 0.00 | 0.01 | 0.00 | 56 | 1018.4 |
| 20260502152034 | 49 | 344 | 5.0 | 11.0 | 0.00 | 0.01 | 0.00 | 63 | 1018.6 |
| 20260502151543 | 48 | 298 | 2.0 | 10.0 | 0.00 | 0.01 | 0.00 | 67 | 1018.6 |
| 20260502151036 | 48 | 309 | 4.0 | 14.0 | 0.00 | 0.01 | 0.00 | 64 | 1018.7 |
| 20260502150533 | 48 | 360 | 6.0 | 14.0 | 0.00 | 0.01 | 0.00 | 64 | 1018.7 |
| 20260502130537 | 37 | 290 | 1.0 | 6.0 | 0.00 | 0.01 | 0.00 | 98 | 1019.3 |
| 20260502123541 | 34 | 0 | 0.0 | 4.0 | 0.00 | 0.01 | 0.00 | 98 | 1019.1 |
| 20260502123049 | 33 | 259 | 1.0 | 3.0 | 0.00 | 0.01 | 0.00 | 98 | 1019.3 |
| 20260502122534 | 33 | 250 | 0.0 | 3.0 | 0.00 | 0.01 | 0.00 | 98 | 1019.2 |
| 20260502122039 | 32 | 250 | 0.0 | 3.0 | 0.00 | 0.01 | 0.00 | 98 | 1019.0 |
| 20260502121552 | 31 | 0 | 0.0 | 3.0 | 0.00 | 0.01 | 0.00 | 98 | 1019.1 |
| 20260502121037 | 31 | 0 | 0.0 | 2.0 | 0.00 | 0.01 | 0.00 | 98 | 1019.0 |
| 20260502120534 | 30 | 162 | 0.0 | 1.0 | 0.00 | 0.01 | 0.00 | 98 | 1018.9 |
| 20260502115540 | 29 | 0 | 0.0 | 1.0 | 0.00 | 0.01 | 0.00 | 98 | 1018.8 |
| 20260502115034 | 29 | 0 | 0.0 | 0.0 | 0.00 | 0.01 | 0.00 | 98 | 1018.8 |
| 20260502114539 | 28 | 0 | 0.0 | 0.0 | 0.00 | 0.01 | 0.00 | 98 | 1018.7 |
| 20260502114033 | 28 | 0 | 0.0 | 0.0 | 0.00 | 0.01 | 0.00 | 98 | 1018.8 |
| 20260502113533 | 27 | 0 | 0.0 | 0.0 | 0.00 | 0.01 | 0.00 | 97 | 1018.7 |
| 20260502113051 | 27 | 0 | 0.0 | 0.0 | 0.00 | 0.01 | 0.00 | 97 | 1018.7 |
| 20260502112538 | 27 | 0 | 0.0 | 0.0 | 0.00 | 0.01 | 0.00 | 97 | 1018.6 |
| 20260502112033 | 27 | 0 | 0.0 | 0.0 | 0.00 | 0.01 | 0.00 | 97 | 1018.6 |
| 20260502111604 | 26 | 0 | 0.0 | 0.0 | 0.00 | 0.01 | 0.00 | 97 | 1018.4 |
| 20260502111033 | 26 | 0 | 0.0 | 0.0 | 0.00 | 0.01 | 0.00 | 97 | 1018.6 |
| 20260502110533 | 26 | 0 | 0.0 | 0.0 | 0.00 | 0.01 | 0.00 | 97 | 1018.7 |
| 20260502110050 | 26 | 0 | 0.0 | 0.0 | 0.00 | 0.01 | 0.00 | 96 | 1018.5 |
| 20260502105538 | 26 | 0 | 0.0 | 0.0 | 0.00 | 0.01 | 0.00 | 96 | 1018.5 |
| 20260502105033 | 26 | 0 | 0.0 | 0.0 | 0.00 | 0.01 | 0.00 | 96 | 1018.5 |
| 20260502104550 | 26 | 0 | 0.0 | 0.0 | 0.00 | 0.01 | 0.00 | 96 | 1018.6 |
| 20260502104035 | 26 | 0 | 0.0 | 0.0 | 0.00 | 0.01 | 0.00 | 96 | 1018.6 |
| 20260502103535 | 26 | 0 | 0.0 | 0.0 | 0.00 | 0.01 | 0.00 | 96 | 1018.6 |
| 20260502103101 | 26 | 0 | 0.0 | 0.0 | 0.00 | 0.01 | 0.00 | 96 | 1018.6 |
| 20260502102535 | 26 | 0 | 0.0 | 0.0 | 0.00 | 0.01 | 0.00 | 96 | 1018.5 |
| 20260502102036 | 26 | 0 | 0.0 | 0.0 | 0.00 | 0.01 | 0.00 | 96 | 1018.6 |
| 20260502101601 | 26 | 0 | 0.0 | 0.0 | 0.00 | 0.01 | 0.00 | 96 | 1018.5 |
| 20260502101035 | 26 | 0 | 0.0 | 0.0 | 0.00 | 0.01 | 0.00 | 96 | 1018.6 |
| 20260502100533 | 26 | 0 | 0.0 | 0.0 | 0.00 | 0.01 | 0.00 | 96 | 1018.6 |
| 20260502091036 | 26 | 0 | 0.0 | 0.0 | 0.00 | 0.01 | 0.00 | 96 | 1018.7 |
| 20260502090535 | 26 | 0 | 0.0 | 0.0 | 0.00 | 0.01 | 0.00 | 96 | 1018.5 |
| 20260502071037 | 27 | 0 | 0.0 | 0.0 | 0.00 | 0.01 | 0.00 | 95 | 1018.5 |
| 20260502070535 | 27 | 0 | 0.0 | 0.0 | 0.00 | 0.01 | 0.00 | 95 | 1018.4 |
| 20260502070040 | 27 | 0 | 0.0 | 0.0 | 0.00 | 0.01 | 0.00 | 95 | 1018.7 |
| 20260502065537 | 27 | 0 | 0.0 | 0.0 | 0.00 | 0.01 | 0.00 | 95 | 1018.6 |
| 20260502065036 | 27 | 0 | 0.0 | 0.0 | 0.00 | 0.01 | 0.00 | 95 | 1018.5 |
| 20260502064539 | 27 | 0 | 0.0 | 0.0 | 0.00 | 0.01 | 0.00 | 95 | 1018.6 |
| 20260502064037 | 27 | 0 | 0.0 | 0.0 | 0.00 | 0.01 | 0.00 | 95 | 1018.7 |
| 20260502063536 | 27 | 0 | 0.0 | 0.0 | 0.00 | 0.01 | 0.00 | 95 | 1018.7 |
| 20260502063048 | 27 | 0 | 0.0 | 0.0 | 0.00 | 0.01 | 0.00 | 95 | 1018.7 |
| 20260502062533 | 27 | 0 | 0.0 | 0.0 | 0.00 | 0.01 | 0.00 | 95 | 1018.7 |
| 20260502062032 | 27 | 0 | 0.0 | 0.0 | 0.00 | 0.01 | 0.00 | 95 | 1018.7 |
| 20260502061543 | 27 | 0 | 0.0 | 0.0 | 0.00 | 0.01 | 0.00 | 95 | 1018.8 |
| 20260502061034 | 27 | 0 | 0.0 | 0.0 | 0.00 | 0.01 | 0.00 | 95 | 1018.7 |
| 20260502060534 | 27 | 0 | 0.0 | 0.0 | 0.00 | 0.01 | 0.00 | 95 | 1018.8 |
| 20260502060040 | 27 | 0 | 0.0 | 0.0 | 0.00 | 0.01 | 0.00 | 95 | 1018.7 |
| 20260502055533 | 28 | 0 | 0.0 | 0.0 | 0.00 | 0.02 | 0.00 | 95 | 1018.8 |
| 20260502055035 | 28 | 0 | 0.0 | 0.0 | 0.00 | 0.02 | 0.00 | 95 | 1018.7 |
| 20260502054543 | 28 | 0 | 0.0 | 0.0 | 0.00 | 0.02 | 0.00 | 95 | 1018.7 |
| 20260502054038 | 28 | 0 | 0.0 | 0.0 | 0.00 | 0.02 | 0.00 | 95 | 1018.8 |
| 20260502053535 | 28 | 0 | 0.0 | 0.0 | 0.00 | 0.02 | 0.00 | 94 | 1018.8 |
| 20260502053039 | 28 | 0 | 0.0 | 0.0 | 0.00 | 0.02 | 0.00 | 94 | 1018.6 |
| 20260502052535 | 28 | 0 | 0.0 | 0.0 | 0.00 | 0.02 | 0.00 | 94 | 1018.7 |
| 20260502052038 | 28 | 0 | 0.0 | 0.0 | 0.00 | 0.02 | 0.00 | 95 | 1018.8 |
| 20260502051548 | 28 | 0 | 0.0 | 0.0 | 0.00 | 0.02 | 0.00 | 94 | 1018.8 |
| 20260502051035 | 28 | 0 | 0.0 | 0.0 | 0.00 | 0.02 | 0.00 | 94 | 1018.8 |
| 20260502050535 | 28 | 0 | 0.0 | 0.0 | 0.00 | 0.02 | 0.00 | 94 | 1018.8 |
| 20260502050042 | 28 | 0 | 0.0 | 0.0 | 0.00 | 0.02 | 0.00 | 94 | 1018.8 |
| 20260502045533 | 28 | 0 | 0.0 | 0.0 | 0.00 | 0.03 | 0.02 | 94 | 1018.7 |
| 20260502045033 | 29 | 0 | 0.0 | 0.0 | 0.00 | 0.03 | 0.02 | 94 | 1018.7 |
| 20260502044541 | 29 | 0 | 0.0 | 0.0 | 0.00 | 0.03 | 0.02 | 94 | 1018.7 |
| 20260502044035 | 29 | 0 | 0.0 | 0.0 | 0.00 | 0.03 | 0.02 | 94 | 1018.7 |
| 20260502043534 | 29 | 0 | 0.0 | 0.0 | 0.00 | 0.03 | 0.02 | 94 | 1018.7 |
| 20260502043040 | 29 | 0 | 0.0 | 0.0 | 0.00 | 0.03 | 0.02 | 94 | 1018.7 |
| 20260502042533 | 29 | 0 | 0.0 | 0.0 | 0.00 | 0.03 | 0.02 | 94 | 1018.6 |
| 20260502042033 | 29 | 0 | 0.0 | 0.0 | 0.00 | 0.03 | 0.02 | 93 | 1018.5 |
| 20260502041540 | 29 | 0 | 0.0 | 0.0 | 0.00 | 0.03 | 0.02 | 93 | 1018.6 |
| 20260502041038 | 29 | 0 | 0.0 | 0.0 | 0.00 | 0.03 | 0.02 | 93 | 1018.7 |
| 20260502040533 | 29 | 0 | 0.0 | 0.0 | 0.00 | 0.03 | 0.02 | 93 | 1018.6 |
| 20260502040042 | 29 | 0 | 0.0 | 0.0 | 0.00 | 0.03 | 0.02 | 93 | 1018.7 |
| 20260502035537 | 29 | 0 | 0.0 | 0.0 | 0.00 | 0.03 | 0.02 | 93 | 1018.6 |
| 20260502035035 | 29 | 0 | 0.0 | 0.0 | 0.00 | 0.03 | 0.02 | 92 | 1018.6 |
| 20260502034545 | 30 | 0 | 0.0 | 0.0 | 0.00 | 0.03 | 0.02 | 92 | 1018.6 |
| 20260502034035 | 30 | 0 | 0.0 | 0.0 | 0.00 | 0.03 | 0.02 | 92 | 1018.5 |
| 20260502033533 | 30 | 0 | 0.0 | 0.0 | 0.00 | 0.03 | 0.02 | 92 | 1018.6 |
| 20260502033046 | 30 | 0 | 0.0 | 0.0 | 0.00 | 0.03 | 0.02 | 92 | 1018.4 |
| 20260502032532 | 30 | 0 | 0.0 | 0.0 | 0.00 | 0.03 | 0.02 | 92 | 1018.5 |
| 20260502032036 | 30 | 0 | 0.0 | 0.0 | 0.00 | 0.03 | 0.02 | 91 | 1018.4 |
| 20260502031539 | 30 | 0 | 0.0 | 0.0 | 0.00 | 0.03 | 0.02 | 91 | 1018.5 |
| 20260502031033 | 30 | 0 | 0.0 | 0.0 | 0.00 | 0.03 | 0.02 | 91 | 1018.5 |
| 20260502030533 | 31 | 0 | 0.0 | 0.0 | 0.00 | 0.03 | 0.02 | 91 | 1018.6 |
| 20260502030043 | 31 | 0 | 0.0 | 0.0 | 0.00 | 0.03 | 0.02 | 90 | 1018.5 |
| 20260502025532 | 31 | 0 | 0.0 | 0.0 | 0.00 | 0.03 | 0.02 | 90 | 1018.5 |
| 20260502025032 | 31 | 0 | 0.0 | 0.0 | 0.00 | 0.03 | 0.02 | 90 | 1018.3 |
| 20260502024537 | 31 | 0 | 0.0 | 0.0 | 0.00 | 0.03 | 0.02 | 90 | 1018.3 |
| 20260502024033 | 32 | 0 | 0.0 | 0.0 | 0.00 | 0.03 | 0.02 | 89 | 1018.4 |
| 20260502023533 | 32 | 0 | 0.0 | 0.0 | 0.00 | 0.03 | 0.02 | 89 | 1018.4 |
| 20260502023047 | 32 | 0 | 0.0 | 0.0 | 0.00 | 0.03 | 0.02 | 88 | 1018.4 |
| 20260502022532 | 32 | 0 | 0.0 | 0.0 | 0.00 | 0.03 | 0.02 | 88 | 1018.3 |
| 20260502022035 | 33 | 0 | 0.0 | 0.0 | 0.00 | 0.03 | 0.02 | 87 | 1018.2 |
| 20260502021541 | 33 | 0 | 0.0 | 0.0 | 0.00 | 0.03 | 0.02 | 87 | 1018.3 |
| 20260502021034 | 33 | 0 | 0.0 | 0.0 | 0.00 | 0.03 | 0.02 | 87 | 1018.3 |
| 20260502020533 | 34 | 0 | 0.0 | 0.0 | 0.00 | 0.03 | 0.02 | 86 | 1018.2 |
| 20260502020039 | 34 | 0 | 0.0 | 0.0 | 0.00 | 0.03 | 0.02 | 86 | 1018.1 |
| 20260502015535 | 34 | 0 | 0.0 | 1.0 | 0.00 | 0.03 | 0.02 | 85 | 1018.0 |
| 20260502015035 | 35 | 0 | 0.0 | 1.0 | 0.00 | 0.03 | 0.02 | 85 | 1018.1 |
| 20260502014544 | 35 | 0 | 0.0 | 0.0 | 0.00 | 0.03 | 0.02 | 84 | 1018.0 |
| 20260502014036 | 35 | 0 | 0.0 | 0.0 | 0.00 | 0.03 | 0.02 | 84 | 1017.8 |
| 20260502013532 | 36 | 0 | 0.0 | 0.0 | 0.00 | 0.03 | 0.02 | 83 | 1017.8 |
| 20260502013048 | 36 | 0 | 0.0 | 0.0 | 0.00 | 0.03 | 0.02 | 82 | 1017.8 |
| 20260502012536 | 37 | 0 | 0.0 | 2.0 | 0.00 | 0.03 | 0.02 | 81 | 1017.7 |
| 20260502012037 | 37 | 0 | 0.0 | 2.0 | 0.00 | 0.03 | 0.02 | 79 | 1017.7 |
| 20260502011543 | 38 | 162 | 0.0 | 2.0 | 0.00 | 0.03 | 0.02 | 78 | 1017.7 |
| 20260502011035 | 39 | 0 | 0.0 | 4.0 | 0.00 | 0.03 | 0.02 | 78 | 1017.7 |
| 20260502010532 | 39 | 161 | 0.0 | 4.0 | 0.00 | 0.03 | 0.02 | 78 | 1017.6 |
| 20260502010047 | 39 | 161 | 1.0 | 4.0 | 0.00 | 0.03 | 0.02 | 77 | 1017.4 |
| 20260502005535 | 39 | 0 | 0.0 | 5.0 | 0.00 | 0.05 | 0.02 | 77 | 1017.5 |
| 20260502005035 | 40 | 163 | 1.0 | 5.0 | 0.00 | 0.05 | 0.02 | 77 | 1017.5 |
| 20260502004553 | 40 | 0 | 0.0 | 5.0 | 0.00 | 0.05 | 0.02 | 76 | 1017.4 |
| 20260502004036 | 40 | 0 | 1.0 | 5.0 | 0.00 | 0.05 | 0.02 | 76 | 1017.5 |
| 20260502003536 | 41 | 0 | 0.0 | 4.0 | 0.00 | 0.05 | 0.02 | 75 | 1017.5 |
| 20260502003047 | 41 | 0 | 0.0 | 5.0 | 0.00 | 0.05 | 0.02 | 74 | 1017.4 |
| 20260502002533 | 42 | 165 | 1.0 | 5.0 | 0.00 | 0.05 | 0.02 | 74 | 1017.3 |
| 20260502002033 | 42 | 166 | 1.0 | 5.0 | 0.00 | 0.05 | 0.02 | 73 | 1017.4 |
| 20260502001542 | 42 | 0 | 0.0 | 3.0 | 0.00 | 0.05 | 0.02 | 74 | 1017.3 |
| 20260502001032 | 43 | 0 | 0.0 | 4.0 | 0.00 | 0.05 | 0.02 | 74 | 1017.3 |
| 20260502000532 | 43 | 104 | 1.0 | 4.0 | 0.00 | 0.05 | 0.02 | 73 | 1017.2 |
| 20260502000053 | 43 | 0 | 0.0 | 4.0 | 0.00 | 0.05 | 0.02 | 74 | 1017.4 |
| 20260501235532 | 43 | 96 | 1.0 | 6.0 | 0.00 | 0.05 | 0.02 | 74 | 1017.5 |
| 20260501235033 | 43 | 123 | 2.0 | 6.0 | 0.00 | 0.05 | 0.02 | 73 | 1017.4 |
| 20260501234543 | 43 | 87 | 1.0 | 6.0 | 0.00 | 0.05 | 0.02 | 74 | 1017.3 |
| 20260501234038 | 43 | 108 | 1.0 | 6.0 | 0.00 | 0.05 | 0.02 | 74 | 1017.3 |
| 20260501233539 | 43 | 101 | 2.0 | 6.0 | 0.00 | 0.05 | 0.02 | 74 | 1017.3 |
| 20260501233043 | 43 | 82 | 1.0 | 8.0 | 0.00 | 0.05 | 0.02 | 74 | 1017.2 |
| 20260501232539 | 43 | 63 | 1.0 | 8.0 | 0.00 | 0.05 | 0.02 | 76 | 1017.3 |
| 20260501232035 | 43 | 108 | 2.0 | 8.0 | 0.00 | 0.05 | 0.02 | 76 | 1017.3 |
| 20260501231547 | 43 | 84 | 1.0 | 7.0 | 0.00 | 0.05 | 0.02 | 76 | 1017.3 |
| 20260501231035 | 43 | 130 | 2.0 | 9.0 | 0.00 | 0.05 | 0.02 | 77 | 1017.3 |
| 20260501230533 | 43 | 82 | 2.0 | 9.0 | 0.00 | 0.05 | 0.02 | 77 | 1017.3 |
| 20260501230042 | 43 | 94 | 2.0 | 8.0 | 0.00 | 0.05 | 0.02 | 79 | 1017.2 |
| 20260501225534 | 43 | 107 | 3.0 | 8.0 | 0.00 | 0.05 | 0.02 | 78 | 1017.3 |
| 20260501225033 | 43 | 69 | 1.0 | 8.0 | 0.00 | 0.05 | 0.02 | 79 | 1017.3 |
| 20260501224542 | 43 | 71 | 2.0 | 8.0 | 0.00 | 0.05 | 0.02 | 80 | 1017.3 |
| 20260501224032 | 42 | 103 | 3.0 | 10.0 | 0.00 | 0.05 | 0.02 | 80 | 1017.5 |
| 20260501223539 | 42 | 54 | 3.0 | 10.0 | 0.00 | 0.05 | 0.02 | 82 | 1017.4 |
| 20260501223040 | 42 | 83 | 3.0 | 9.0 | 0.00 | 0.05 | 0.02 | 84 | 1017.5 |
| 20260501222535 | 41 | 90 | 2.0 | 9.0 | 0.00 | 0.05 | 0.02 | 86 | 1017.6 |
| 20260501222035 | 41 | 55 | 2.0 | 10.0 | 0.00 | 0.05 | 0.02 | 85 | 1017.4 |
| 20260501221545 | 41 | 0 | 1.0 | 10.0 | 0.00 | 0.05 | 0.02 | 85 | 1017.4 |
| 20260501221035 | 41 | 114 | 3.0 | 10.0 | 0.00 | 0.05 | 0.02 | 84 | 1017.4 |
| 20260501220534 | 42 | 96 | 2.0 | 8.0 | 0.00 | 0.05 | 0.02 | 84 | 1017.3 |
| 20260501220052 | 42 | 67 | 2.0 | 8.0 | 0.00 | 0.05 | 0.02 | 83 | 1017.2 |
| 20260501215534 | 42 | 71 | 1.0 | 9.0 | 0.00 | 0.06 | 0.02 | 82 | 1017.3 |
| 20260501215032 | 43 | 117 | 3.0 | 9.0 | 0.00 | 0.06 | 0.02 | 82 | 1017.1 |
| 20260501214547 | 44 | 60 | 2.0 | 9.0 | 0.00 | 0.06 | 0.02 | 82 | 1017.1 |
| 20260501214033 | 44 | 112 | 4.0 | 9.0 | 0.00 | 0.06 | 0.02 | 81 | 1017.1 |
| 20260501213532 | 45 | 93 | 1.0 | 11.0 | 0.00 | 0.06 | 0.02 | 82 | 1016.9 |
| 20260501213104 | 45 | 105 | 4.0 | 11.0 | 0.00 | 0.06 | 0.02 | 80 | 1016.8 |
| 20260501212533 | 45 | 123 | 2.0 | 7.0 | 0.00 | 0.06 | 0.02 | 81 | 1016.7 |
| 20260501212033 | 45 | 75 | 2.0 | 8.0 | 0.00 | 0.06 | 0.02 | 82 | 1016.8 |
| 20260501211541 | 44 | 113 | 2.0 | 8.0 | 0.00 | 0.06 | 0.02 | 84 | 1016.7 |
| 20260501211034 | 44 | 119 | 3.0 | 8.0 | 0.00 | 0.06 | 0.02 | 83 | 1016.6 |
| 20260501210534 | 43 | 72 | 3.0 | 9.0 | 0.00 | 0.06 | 0.02 | 84 | 1016.7 |
| 20260501210049 | 43 | 142 | 3.0 | 9.0 | 0.00 | 0.06 | 0.02 | 83 | 1016.8 |
| 20260501205533 | 43 | 122 | 4.0 | 9.0 | 0.00 | 0.07 | 0.02 | 83 | 1017.0 |
| 20260501205037 | 43 | 124 | 2.0 | 9.0 | 0.01 | 0.07 | 0.02 | 82 | 1017.1 |
| 20260501204551 | 43 | 48 | 2.0 | 6.0 | 0.01 | 0.07 | 0.02 | 83 | 1017.2 |
| 20260501204038 | 43 | 105 | 1.0 | 3.0 | 0.01 | 0.07 | 0.02 | 83 | 1017.1 |
| 20260501203535 | 43 | 0 | 0.0 | 3.0 | 0.01 | 0.07 | 0.02 | 81 | 1017.1 |
| 20260501203043 | 43 | 117 | 1.0 | 3.0 | 0.01 | 0.07 | 0.02 | 82 | 1017.0 |
| 20260501202534 | 43 | 0 | 0.0 | 6.0 | 0.01 | 0.07 | 0.02 | 82 | 1017.0 |
| 20260501202036 | 43 | 0 | 0.0 | 6.0 | 0.01 | 0.07 | 0.02 | 80 | 1016.9 |
| 20260501201543 | 43 | 120 | 3.0 | 6.0 | 0.01 | 0.07 | 0.02 | 79 | 1016.9 |
| 20260501201034 | 43 | 109 | 2.0 | 6.0 | 0.01 | 0.07 | 0.02 | 79 | 1016.8 |
| 20260501200534 | 43 | 103 | 1.0 | 6.0 | 0.01 | 0.07 | 0.02 | 79 | 1016.8 |
| 20260501200043 | 43 | 125 | 0.0 | 4.0 | 0.01 | 0.07 | 0.02 | 80 | 1016.8 |
| 20260501195535 | 43 | 119 | 2.0 | 4.0 | 0.01 | 0.07 | 0.02 | 79 | 1017.0 |
| 20260501195036 | 43 | 113 | 1.0 | 4.0 | 0.00 | 0.06 | 0.01 | 82 | 1016.9 |
| 20260501194548 | 43 | 106 | 0.0 | 4.0 | 0.00 | 0.06 | 0.01 | 82 | 1016.9 |
| 20260501194036 | 42 | 102 | 1.0 | 4.0 | 0.00 | 0.06 | 0.01 | 80 | 1016.8 |
| 20260501193533 | 42 | 21 | 2.0 | 4.0 | 0.00 | 0.06 | 0.01 | 79 | 1016.7 |
| 20260501193041 | 42 | 103 | 1.0 | 5.0 | 0.00 | 0.06 | 0.01 | 81 | 1016.7 |
| 20260501192535 | 43 | 123 | 2.0 | 5.0 | 0.00 | 0.06 | 0.01 | 80 | 1016.8 |
| 20260501192037 | 43 | 119 | 1.0 | 3.0 | 0.00 | 0.06 | 0.01 | 80 | 1016.7 |
| 20260501191545 | 43 | 112 | 0.0 | 3.0 | 0.00 | 0.06 | 0.01 | 80 | 1016.8 |
| 20260501191037 | 43 | 112 | 0.0 | 3.0 | 0.00 | 0.06 | 0.01 | 79 | 1016.7 |
| 20260501190539 | 43 | 101 | 0.0 | 4.0 | 0.00 | 0.06 | 0.01 | 80 | 1016.6 |
| 20260501190042 | 43 | 0 | 0.0 | 5.0 | 0.00 | 0.06 | 0.01 | 79 | 1016.7 |
| 20260501185536 | 43 | 78 | 1.0 | 5.0 | 0.00 | 0.06 | 0.01 | 80 | 1016.6 |
| 20260501185035 | 43 | 80 | 1.0 | 5.0 | 0.00 | 0.06 | 0.01 | 78 | 1016.5 |
| 20260501184542 | 44 | 71 | 1.0 | 8.0 | 0.00 | 0.06 | 0.01 | 77 | 1016.5 |
| 20260501184036 | 44 | 78 | 1.0 | 8.0 | 0.00 | 0.06 | 0.01 | 76 | 1016.4 |
| 20260501183537 | 44 | 96 | 2.0 | 8.0 | 0.00 | 0.06 | 0.01 | 77 | 1016.4 |
| 20260501183045 | 45 | 83 | 3.0 | 8.0 | 0.00 | 0.06 | 0.01 | 76 | 1016.3 |
| 20260501182535 | 45 | 118 | 3.0 | 8.0 | 0.00 | 0.06 | 0.01 | 76 | 1016.2 |
| 20260501182035 | 45 | 103 | 2.0 | 7.0 | 0.00 | 0.06 | 0.01 | 77 | 1016.2 |
| 20260501181554 | 45 | 121 | 2.0 | 9.0 | 0.00 | 0.06 | 0.01 | 77 | 1016.2 |